Location: Amarillo Post Office Jordan Station
(35.1907°N, 101.9342°W)
Time: 13:45:16
(UTC+00:00)

CZ-4B R/B - Pass Details

Date: 24 January 2021
Orbit: 809 x 882 km, 99.1° (Epoch: 03 March)

Event Time Altitude Azimuth Distance (km) Brightness Sun altitude
Rises 12:45:33 0° 20° (NNE) 3,480 6.5 -13.7°
Reaches altitude 10° 12:48:04 10° 26° (NNE) 2,532 5.8 -13.2°
Maximum altitude 12:53:29 48° 100° (E) 1,127 4.4 -12.1°
Drops below altitude 10° 12:58:47 10° 174° (S) 2,479 5.9 -11.1°
Sets 13:01:13 0° 180° (S) 3,400 6.6 -10.6°
